Wind_Speed
13 12 12 11 10 10 12 11 11 11 11 11 12 13 13 13 13 13 13 12 10 12 13 13 13 13 13 13 13 13 13 13 15 16 15 14 14 13 14 18 17 18 19
16 14 13 12 11 12 12 12 10 10 10 9 10 10 11 11 10 9 9 10 10 10 11 12 13 13 13 13 13 13 13 13 15 15 14 13 15 12 14 17 18 17 18
16 15 14 13 12 11 11 10 10 9 9 9 8 8 9 9 9 10 9 9 10 10 11 12 13 13 13 13 13 13 14 14 14 13 12 12 13 12 14 17 19 19 18
16 15 14 12 11 11 10 9 9 9 8 8 7 8 7 7 8 9 9 9 8 9 10 12 11 12 13 12 12 13 14 14 13 12 11 11 11 11 14 18 20 18 17
15 14 13 12 11 10 9 9 8 8 8 8 8 7 7 6 6 7 7 7 7 9 10 9 10 10 12 12 11 13 13 12 12 10 9 10 10 9 10 14 17 16 17
16 14 13 11 11 10 10 9 8 8 8 8 7 8 7 7 7 6 7 7 8 7 8 9 10 8 8 11 11 11 11 8 5 8 8 9 9 9 9 11 12 14 15
16 14 12 11 10 9 9 9 9 8 8 8 8 9 8 8 8 8 7 7 6 7 7 9 8 6 5 8 11 10 9 6 3 9 8 8 10 11 11 11 13 14 15
16 14 11 10 9 9 9 8 9 9 9 9 9 9 9 10 10 9 9 8 8 7 7 8 8 6 5 7 11 10 9 6 6 8 6 4 11 14 15 13 15 14 13
15 14 12 9 8 7 7 8 8 8 9 10 10 10 10 11 11 10 11 10 10 9 8 8 8 7 6 8 10 11 10 7 4 8 7 6 4 15 16 13 15 13 12
14 12 10 9 8 7 6 6 6 7 8 9 10 11 11 11 11 12 12 12 12 12 10 9 9 8 7 8 9 11 12 10 6 8 7 6 7 12 16 15 14 12 10
14 12 11 10 9 8 7 6 5 5 6 8 10 11 12 13 12 12 13 14 13 13 13 12 11 10 8 9 9 10 11 12 9 7 7 7 10 11 13 13 13 13 12
15 13 12 11 10 10 9 10 8 7 7 7 8 11 13 13 13 13 13 14 15 14 14 14 12 11 11 11 10 11 11 12 12 9 7 8 11 11 11 11 11 10 9
16 15 13 12 11 11 11 12 11 9 9 9 7 8 10 13 14 13 14 14 15 15 16 15 15 14 14 13 13 13 11 11 14 13 10 11 12 11 10 9 9 9 9
18 18 16 15 15 14 14 14 13 13 11 11 10 9 10 11 12 15 15 16 17 17 17 17 18 17 16 15 15 15 14 13 14 15 13 14 14 12 11 9 8 9 8
19 19 18 17 18 18 16 15 15 14 13 12 11 11 10 11 12 14 17 16 17 17 18 19 19 19 19 18 18 18 18 17 15 17 15 15 16 15 13 12 10 9 10
30 22 19 20 20 20 19 17 17 15 14 13 13 12 12 12 12 14 13 18 21 20 21 20 20 21 21 20 20 20 20 20 19 20 20 18 19 19 17 16 13 12 13
29 28 29 22 22 23 21 19 17 16 15 15 14 14 14 14 14 13 14 14 14 14 15 15 18 20 22 22 23 23 22 22 20 20 18 22 24 21 24 22 18 16 13
37 27 21 23 24 25 23 19 17 16 16 15 14 14 14 15 15 15 16 15 15 16 15 14 16 17 19 22 24 26 25 24 25 23 20 21 23 24 26 26 22 18 17
40 41 31 22 16 19 21 18 17 17 17 16 16 16 15 15 16 18 17 16 16 15 15 15 14 14 14 16 22 24 24 25 26 27 27 26 22 24 25 29 25 19 18
40 42 45 35 28 16 14 16 17 17 18 17 17 17 16 17 17 17 18 16 15 15 15 14 15 15 15 15 15 17 17 19 23 24 25 26 26 25 27 29 26 23 20
41 43 45 46 42 33 23 20 20 21 18 18 18 18 18 17 17 17 19 18 17 16 16 14 13 13 14 15 11 12 15 19 20 21 26 25 23 25 28 29 27 24 20
36 37 38 40 43 42 37 24 20 20 17 15 18 19 19 19 18 18 18 20 18 17 16 15 14 13 12 11 6 2 2 5 15 20 21 27 29 25 29 31 30 28 27
35 35 33 35 34 39 43 37 29 19 19 23 23 20 18 19 19 20 20 21 21 20 19 17 15 15 13 9 12 7 1 4 1 7 19 26 28 29 27 28 32 33 31
30 30 30 35 33 34 40 41 36 25 25 26 29 20 18 18 18 22 21 21 21 21 20 18 16 16 16 17 11 15 17 4 1 2 5 13 21 30 32 34 36 35 34
27 30 29 31 31 34 35 37 37 32 33 34 28 28 22 22 19 20 22 23 23 24 23 21 20 19 18 17 17 12 14 17 18 6 4 3 8 20 29 32 32 35 38
27 28 28 31 30 33 33 29 30 34 36 36 38 34 27 20 20 17 19 22 20 22 22 21 20 20 19 18 18 18 18 12 7 7 5 7 10 15 17 24 35 35 35
Wind_Direction
169 156 157 148 145 145 149 145 135 125 118 119 120 121 121 121 120 123 120 116 114 107 106 105 105 107 105 104 106 114 113 106 106 105 106 111 116 111 121 122 117 110 107
159 157 157 148 143 143 149 149 143 138 125 119 123 124 126 129 130 125 123 119 119 117 113 112 112 112 110 108 106 107 116 115 115 112 112 113 121 118 131 131 127 116 112
152 157 160 155 146 147 154 155 152 148 141 135 129 127 127 128 127 129 122 120 123 126 125 121 120 118 116 116 114 111 110 114 120 116 119 114 128 115 129 129 122 115 112
152 156 160 160 153 148 151 158 160 160 156 153 147 146 139 136 133 132 132 133 137 137 140 130 127 124 120 121 122 121 119 118 124 122 114 130 133 121 122 128 120 119 118
156 157 156 159 163 163 163 162 165 173 171 169 166 167 165 155 149 145 141 148 162 152 142 147 140 129 126 128 129 131 128 126 121 139 130 133 135 139 126 124 119 124 126
157 164 164 168 168 168 169 174 176 179 181 181 183 183 183 178 172 169 161 163 164 164 159 162 158 141 134 145 143 144 141 148 178 168 147 160 158 150 151 145 136 130 128
154 162 165 170 173 178 183 187 188 192 196 194 195 195 199 196 194 191 187 187 185 178 177 172 168 164 166 165 158 161 157 152 134 147 167 177 183 170 167 155 148 144 135
155 157 160 165 171 177 184 191 198 201 206 209 208 210 212 211 210 211 208 207 205 201 187 191 186 190 185 178 169 175 176 168 152 149 152 172 194 183 180 163 161 150 143
160 158 160 164 172 182 193 200 203 207 212 217 218 219 222 224 225 224 219 217 213 213 209 205 206 203 192 185 184 186 190 194 174 177 168 161 187 192 179 166 155 150 150
167 169 170 168 174 181 188 194 208 220 223 225 227 230 231 230 230 228 223 223 222 220 219 218 212 214 205 192 190 198 198 204 199 193 185 187 182 149 151 146 151 156 166
185 190 190 189 189 190 200 201 207 227 240 236 235 234 234 234 232 232 231 227 225 227 226 224 223 218 214 206 199 205 207 206 210 206 211 204 191 176 163 163 164 168 163
200 203 204 206 213 213 213 213 222 241 243 244 248 242 237 236 236 238 239 234 232 230 231 229 225 224 220 215 207 208 212 212 210 210 212 191 187 187 183 179 172 174 177
210 213 214 221 223 226 228 223 230 238 241 242 256 246 246 242 239 235 235 234 234 232 230 227 227 225 223 222 217 214 215 217 216 215 222 207 202 198 197 196 198 197 200
239 238 238 240 241 237 235 236 237 243 247 245 248 252 246 247 243 240 241 234 234 234 234 231 228 229 228 229 227 224 225 224 223 222 224 215 209 215 226 225 223 225 221
257 253 250 247 242 239 239 243 247 244 244 245 247 243 247 245 250 246 247 245 238 237 237 234 234 235 234 232 233 232 232 233 229 224 232 227 221 218 227 227 237 243 242
299 264 255 248 245 237 240 249 257 245 241 239 240 241 245 250 251 251 255 242 246 250 243 242 239 242 244 240 237 238 238 239 241 239 236 236 235 235 228 233 238 244 243
347 316 285 252 240 237 244 254 252 248 245 245 245 244 248 252 250 249 241 237 239 243 241 241 241 241 242 244 246 244 242 241 242 244 243 244 243 244 235 232 240 241 238
12 7 344 304 280 252 247 248 247 246 248 252 254 252 247 247 251 249 251 246 241 243 246 246 246 249 246 243 245 246 244 245 245 245 246 249 247 247 234 231 236 242 243
19 20 16 11 334 297 275 252 247 245 250 252 255 258 258 253 250 252 253 254 248 242 242 245 249 252 248 249 248 253 252 248 247 249 253 254 253 247 241 231 233 244 251
21 22 25 23 22 4 308 291 271 252 256 258 261 263 261 259 249 245 245 249 243 240 244 247 249 247 249 256 260 253 257 264 259 253 251 255 256 249 239 228 230 236 246
20 22 21 20 17 17 10 354 333 294 270 269 274 278 274 266 256 245 242 240 246 246 245 247 249 246 249 247 245 249 267 262 257 255 249 249 250 244 232 229 228 236 245
15 15 17 17 16 14 10 1 347 318 310 294 287 281 275 268 261 251 243 240 242 243 241 240 239 242 245 244 228 219 290 262 244 245 250 246 243 243 239 236 233 231 233
15 9 10 12 11 11 11 6 357 346 324 307 300 295 286 271 260 253 246 241 242 244 241 239 236 235 239 241 231 213 208 233 247 228 240 240 238 240 238 234 232 235 244
8 7 8 8 8 7 9 9 6 354 341 333 305 295 290 283 269 251 249 245 239 238 238 238 239 239 239 244 246 237 241 254 252 309 231 245 246 241 242 243 242 243 243
5 6 2 1 4 3 3 2 360 351 346 332 331 298 292 275 273 262 250 247 247 243 241 243 242 240 239 241 238 241 241 253 255 240 282 271 270 253 249 248 248 245 244
1 1 360 358 359 358 355 354 354 351 345 336 331 328 290 283 272 263 249 246 251 248 242 242 245 244 244 245 246 244 240 239 211 220 235 247 255 275 265 257 250 250 246
Height
803 804 806 807 808 809 810 812 813 814 814 814 815 815 816 817 818 819 821 822 822 822 823 824 825 826 826 826 827 827 828 828 829 829 829 830 830 832 832 833 834 834 835
802 805 807 808 809 810 812 812 814 815 816 817 817 818 818 819 820 821 822 823 824 824 825 826 826 827 828 829 829 829 829 830 830 831 832 832 833 833 834 835 835 837 838
804 806 808 809 810 812 813 814 815 816 816 818 819 820 821 821 821 822 824 825 826 826 827 828 828 829 829 830 831 831 831 831 833 834 835 835 835 835 836 837 837 839 840
805 807 809 810 812 813 815 816 816 817 818 818 819 821 822 823 823 824 825 826 827 827 828 829 830 830 830 831 832 833 834 834 835 836 836 837 837 837 838 839 840 842 843
807 808 810 811 813 814 816 816 817 818 818 819 820 821 823 824 825 825 826 827 828 829 829 830 831 832 832 833 834 835 836 836 836 837 838 838 838 839 840 841 842 844 844
808 810 811 812 813 814 816 817 817 818 819 819 821 822 823 824 826 826 827 828 828 829 830 831 832 833 834 835 836 836 837 837 837 838 838 839 840 841 842 843 843 845 846
808 811 812 813 814 815 816 817 818 818 819 820 821 822 823 824 826 826 828 829 829 830 831 831 833 834 835 836 837 837 837 838 838 837 839 839 840 842 844 844 845 847 848
808 810 812 813 814 815 816 817 818 819 820 820 821 822 823 824 825 826 827 828 829 830 831 832 833 834 835 836 837 837 838 838 839 839 839 840 840 842 843 845 846 848 850
810 811 812 814 815 816 817 817 818 819 820 821 821 822 823 824 825 825 826 827 828 830 831 832 833 834 834 836 837 838 838 839 839 840 841 841 841 840 843 844 846 849 850
812 813 813 814 815 816 817 818 818 819 820 821 821 821 822 823 824 825 826 827 828 829 830 832 833 834 835 835 837 838 838 839 840 840 841 842 842 842 843 845 847 849 851
812 813 814 814 815 816 817 818 818 819 819 820 820 821 821 822 823 824 824 825 827 828 829 830 832 833 834 836 836 837 838 839 840 841 841 842 843 844 845 847 848 850 851
812 813 814 814 815 815 816 817 817 818 819 819 819 819 820 820 821 822 823 824 825 826 828 829 831 832 834 835 836 837 838 839 840 841 841 842 843 844 845 848 849 850 851
811 812 813 813 814 814 815 815 816 817 817 817 818 818 818 819 819 820 821 822 823 825 826 827 829 830 831 833 834 836 837 838 839 840 841 842 843 844 845 846 848 850 851
809 810 811 812 812 813 813 814 814 814 815 816 817 817 817 817 818 818 819 820 821 822 823 825 827 828 829 831 833 834 835 836 838 839 840 841 842 844 845 846 847 849 850
808 808 808 809 809 810 810 811 812 812 813 813 814 815 815 816 816 817 818 818 819 820 821 823 824 826 827 829 830 832 833 835 836 837 839 840 841 842 844 845 846 847 848
812 806 806 806 806 807 808 809 809 810 810 811 812 813 814 814 815 815 815 816 817 818 819 820 821 824 825 826 827 829 831 832 834 836 837 838 839 840 841 843 843 844 845
812 809 808 803 804 804 805 806 807 808 808 809 809 810 810 812 813 813 814 814 815 816 816 817 819 820 821 823 824 826 827 829 831 832 834 834 836 837 838 839 841 842 842
812 807 806 807 809 804 802 802 803 804 806 807 807 808 808 808 809 810 811 812 813 814 814 815 816 816 817 818 820 821 823 825 827 829 830 831 832 833 834 836 837 839 840
821 813 806 804 804 806 807 803 801 802 802 803 804 805 806 806 807 807 808 809 810 810 811 812 813 814 814 814 815 816 818 820 822 824 825 827 828 829 830 832 834 836 838
827 820 814 810 805 804 805 807 805 801 801 801 801 802 802 802 802 803 805 806 807 807 808 809 810 810 811 812 812 812 814 815 817 819 820 822 823 824 825 827 830 832 834
827 821 819 816 813 808 806 806 806 806 801 800 800 800 800 800 800 800 801 802 803 804 804 805 806 807 807 809 810 810 808 809 811 813 815 817 818 820 821 823 826 827 830
835 830 825 823 820 817 813 810 809 806 803 799 798 798 797 797 797 797 797 798 800 800 801 802 803 804 804 805 806 807 808 806 805 806 808 811 813 815 817 819 821 822 824
839 836 833 829 826 823 818 812 807 804 803 800 797 796 795 794 793 793 794 795 796 797 797 799 800 801 802 802 803 805 808 806 803 802 803 805 808 810 812 814 816 818 821
846 842 837 832 828 825 821 816 816 816 811 804 799 794 793 792 790 789 789 791 792 792 793 795 797 798 798 799 801 802 802 803 804 803 800 801 803 804 806 808 810 811 814
850 845 841 837 831 826 822 820 818 815 811 806 797 793 789 787 786 785 785 785 787 788 789 790 792 794 795 796 797 798 800 801 801 803 800 800 801 801 802 803 804 805 807
852 847 843 838 833 828 826 822 817 814 811 807 798 792 787 783 782 780 779 780 781 783 785 786 787 789 791 792 793 794 796 797 798 800 801 800 799 798 797 797 799 800 801